User: anonymous   Login
Location: Unspecified
(0.0000°N, 0.0000°E)
Time: 02:10:27
(UTC+00:00)
Language:

HERMES-6 - Orbit

View from above orbital plane
View from above orbital plane
View from above satellite
View from above satellite

Ground track
Ground track

The orbit is defined by the following mean orbital elements,

1 63489U          26145.27759964 +.00000000 +00000-0 +28496-3 0 00002
2 63489  97.4029  38.0957 0004456 244.0723 116.0055 15.22792032    07
Epoch (UTC): 25 May 2026 06:39:44
Eccentricity: 0.0004456
inclination: 97.4029°
perigee height: 494 km
apogee height: 500 km
right ascension of ascending node: 38.0957°
argument of perigee: 244.0723°
revolutions per day: 15.22792032
mean anomaly at epoch: 116.0055°

The dashed part of the orbit path shows where the satellite is in the earth's shadow,  

DLR